This is the latest recevied weather packets stored in our database for station/object DL1MX-13. If no packets are shown the sender has not sent any weather packets the latest 1 day(s).
| Time | Temp. | Humidity | Pressure | Rain* | Wind** | Luminosity | Snow |
|---|---|---|---|---|---|---|---|
| 1777990682 | 12.78° C | 87% | 1009 hPa | 0 mm | 0.89 m/s, 235° | - | - |
| 1777990622 | 12.78° C | 87% | 1009 hPa | 0 mm | 0.89 m/s, 235° | - | - |
| 1777990562 | 12.78° C | 87% | 1008.9 hPa | 0 mm | 2.68 m/s, 225° | - | - |
| 1777990501 | 12.78° C | 87% | 1009 hPa | 0 mm | 2.68 m/s, 225° | - | - |
| 1777990442 | 12.78° C | 87% | 1009 hPa | 0 mm | 2.68 m/s, 225° | - | - |
| 1777990381 | 12.78° C | 87% | 1009 hPa | 0 mm | 2.24 m/s, 215° | - | - |
| 1777990322 | 12.78° C | 87% | 1009 hPa | 0 mm | 2.24 m/s, 215° | - | - |
| 1777990262 | 12.78° C | 86% | 1009 hPa | 0 mm | 1.34 m/s, 220° | - | - |
| 1777990202 | 12.78° C | 86% | 1009.2 hPa | 0 mm | 1.34 m/s, 220° | - | - |
| 1777990142 | 12.78° C | 86% | 1009.2 hPa | 0 mm | 1.34 m/s, 220° | - | - |
| 1777990082 | 12.78° C | 86% | 1009.2 hPa | 0 mm | 1.34 m/s, 220° | - | - |
| 1777990022 | 12.78° C | 86% | 1009.2 hPa | 0 mm | 1.34 m/s, 220° | - | - |
| 1777989961 | 12.78° C | 86% | 1009.2 hPa | 0 mm | 1.34 m/s, 220° | - | - |
| 1777989902 | 12.78° C | 86% | 1009.2 hPa | 0 mm | 1.34 m/s, 220° | - | - |
| 1777989841 | 12.78° C | 86% | 1009.2 hPa | 0 mm | 1.34 m/s, 220° | - | - |
| 1777989782 | 12.78° C | 86% | 1009.2 hPa | 0 mm | 1.34 m/s, 220° | - | - |
| 1777989721 | 12.78° C | 86% | 1009.2 hPa | 0 mm | 1.34 m/s, 220° | - | - |
| 1777989662 | 12.78° C | 86% | 1009.2 hPa | 0 mm | 1.34 m/s, 220° | - | - |
| 1777989601 | 13.33° C | 86% | 1009.2 hPa | 0 mm | 2.24 m/s, 225° | - | - |
| 1777989542 | 13.33° C | 86% | 1009.2 hPa | 0 mm | 2.24 m/s, 225° | - | - |
| 1777989482 | 13.33° C | 85% | 1009.2 hPa | 0 mm | 2.68 m/s, 230° | - | - |
| 1777989362 | 13.33° C | 85% | 1009.2 hPa | 0 mm | 2.68 m/s, 230° | - | - |
| 1777989301 | 13.33° C | 85% | 1009.2 hPa | 0 mm | 2.68 m/s, 220° | - | - |
| 1777989242 | 13.33° C | 85% | 1009.3 hPa | 0 mm | 2.68 m/s, 220° | - | - |
| 1777989182 | 13.33° C | 85% | 1009.2 hPa | 0 mm | 3.58 m/s, 222° | - | - |
* Rain since midnight (hover to see other rain measurements)
** Current wind speed in m/s (hover to see current wind gust speed)